EW8215 Weather Reports


Display with metric or nautical units.
time (UTC)temp
F
wind
direction
speed
MPH
gust
MPH
rain 1hr
in
rain 24hr
in
rain mn
in
humidity
%
barometer
mb
20260508084749 61 144 0.0 0.0 0.00 0.00 0.00 88 1014.7
20260508084248 61 146 0.0 0.0 0.00 0.00 0.00 89 1014.6
20260508083745 61 76 0.0 0.0 0.00 0.00 0.00 88 1014.5
20260508083242 60 144 0.0 0.0 0.00 0.00 0.00 89 1014.7
20260508082736 60 147 0.0 0.0 0.00 0.00 0.00 89 1014.5
20260508082235 60 149 0.0 0.0 0.00 0.00 0.00 89 1014.4
20260508081732 60 96 0.0 0.0 0.00 0.00 0.00 89 1014.5
20260508081229 60 148 0.0 0.0 0.00 0.00 0.00 89 1014.4
20260508080726 60 127 0.0 0.0 0.00 0.00 0.00 90 1014.4
20260508080224 59 143 0.0 0.0 0.00 0.00 0.00 93 1014.7
20260508075720 59 145 0.0 0.0 0.00 0.00 0.00 95 1014.9
20260508075217 59 147 0.0 0.0 0.00 0.00 0.00 95 1014.9
20260508074714 59 151 0.0 0.0 0.00 0.00 0.00 96 1014.9
20260508074212 59 151 0.0 0.0 0.00 0.00 0.00 96 1015.0
20260508073708 59 151 0.0 0.0 0.00 0.00 0.00 96 1015.1
20260508073207 59 151 0.0 0.0 0.00 0.00 0.00 96 1015.2
20260508072702 58 150 0.0 0.0 0.00 0.00 0.00 96 1015.2
20260508072159 58 147 0.0 0.0 0.00 0.00 0.00 96 1015.3
20260508071657 58 163 0.0 0.0 0.00 0.00 0.00 96 1015.5
20260508071155 58 129 0.0 0.0 0.00 0.00 0.00 96 1015.7
20260508070652 58 121 0.0 0.0 0.00 0.00 0.00 96 1015.6
20260508070151 58 155 0.0 0.0 0.00 0.00 0.00 96 1015.5
20260508065647 58 155 0.0 0.0 0.00 0.00 0.00 96 1015.5
20260508065145 57 154 0.0 0.0 0.00 0.00 0.00 96 1015.6
20260508064643 57 156 0.0 0.0 0.00 0.00 0.00 96 1015.7
20260508064141 57 156 0.0 0.0 0.00 0.00 0.00 96 1015.7
20260508063638 57 156 0.0 0.0 0.00 0.00 0.00 96 1015.8
20260508063136 57 156 0.0 0.0 0.00 0.00 0.00 95 1016.1
20260508062633 57 156 0.0 0.0 0.00 0.00 0.00 95 1015.9
20260508062129 58 160 0.0 0.0 0.00 0.00 0.00 95 1016.0
20260508061627 58 184 0.0 0.0 0.00 0.00 0.00 95 1015.8
20260508061124 58 159 0.0 0.0 0.00 0.00 0.00 95 1015.6
20260508060621 58 160 0.0 0.0 0.00 0.00 0.00 95 1015.7
20260508060118 58 155 0.0 0.0 0.00 0.00 0.00 95 1015.6
20260508055613 58 132 0.0 0.0 0.00 0.00 0.00 95 1015.5
20260508055111 58 156 0.0 0.0 0.00 0.00 0.00 95 1015.6
20260508054607 58 139 0.0 0.0 0.00 0.00 0.00 95 1015.4
20260508054104 58 145 0.0 0.0 0.00 0.00 0.00 95 1015.4
20260508053601 58 146 0.0 0.0 0.00 0.00 0.00 95 1015.8
20260508053059 58 146 0.0 0.0 0.00 0.00 0.00 95 1015.7
20260508052556 58 146 0.0 0.0 0.00 0.00 0.00 95 1015.9
20260508052053 58 146 0.0 0.0 0.00 0.00 0.00 95 1015.9
20260508051544 58 147 0.0 0.0 0.00 0.00 0.00 94 1016.0
20260508051039 58 158 0.0 0.0 0.00 0.00 0.00 94 1016.6
20260508050536 59 160 0.0 0.0 0.00 0.00 0.00 94 1016.4
20260508050033 58 146 0.0 0.0 0.00 0.00 0.00 94 1015.9
20260508045529 58 146 0.0 0.0 0.00 0.00 0.00 94 1016.0
20260508045027 58 146 0.0 0.0 0.00 0.00 0.00 94 1016.1
20260508044524 59 145 0.0 0.0 0.00 0.00 0.00 94 1015.7
20260508044020 59 146 0.0 0.0 0.00 0.00 0.00 93 1015.7
20260508043517 59 157 0.0 0.0 0.00 0.00 0.00 93 1016.2
20260508043014 59 160 0.0 0.0 0.00 0.00 0.00 93 1016.1
20260508042511 59 160 0.0 0.0 0.00 0.00 0.00 93 1015.9
20260508042008 59 160 0.0 0.0 0.00 0.00 0.00 92 1016.1
20260508041505 59 160 0.0 0.0 0.00 0.00 0.00 92 1016.2
20260508041001 59 160 0.0 0.0 0.00 0.00 0.00 92 1016.4
20260508040458 59 161 0.0 0.0 0.00 0.00 0.00 92 1016.5
20260508035956 59 116 0.0 0.0 0.00 0.00 0.00 92 1016.6
20260508035453 59 154 0.0 0.0 0.00 0.00 0.00 92 1016.5
20260508034949 59 147 0.0 0.0 0.00 0.00 0.00 92 1016.1
20260508034447 59 147 0.0 0.0 0.00 0.00 0.00 92 1016.2
20260508033943 59 136 0.0 0.0 0.00 0.00 0.00 92 1016.7
20260508033441 59 163 0.0 0.0 0.00 0.00 0.00 92 1016.5
20260508032938 59 154 0.0 0.0 0.00 0.00 0.00 91 1016.1
20260508032435 59 154 0.0 0.0 0.00 0.00 0.00 91 1015.8
20260508031931 60 154 0.0 0.0 0.00 0.00 0.00 90 1015.9
20260508031429 60 154 0.0 0.0 0.00 0.00 0.00 90 1015.7
20260508030924 60 154 0.0 0.0 0.00 0.00 0.00 90 1015.5
20260508030422 60 153 0.0 0.0 0.00 0.00 0.00 89 1015.5
20260508025919 60 164 0.0 0.0 0.00 0.00 0.00 89 1015.8
20260508025415 60 173 0.0 0.0 0.00 0.00 0.00 89 1015.4
20260508024913 60 125 0.0 0.0 0.00 0.00 0.00 89 1015.1
20260508024409 60 131 0.0 0.0 0.00 0.00 0.00 88 1015.0
20260508023906 60 134 0.0 0.0 0.00 0.00 0.00 88 1015.1
20260508023403 61 131 0.0 0.0 0.00 0.00 0.00 87 1015.2
20260508022859 60 131 0.0 0.0 0.00 0.00 0.00 88 1015.0
20260508022355 61 135 0.0 0.0 0.00 0.00 0.00 88 1014.8
20260508021852 61 134 0.0 0.0 0.00 0.00 0.00 88 1015.0
20260508021348 61 137 0.0 0.0 0.00 0.00 0.00 87 1015.2
20260508020844 61 139 0.0 0.0 0.00 0.00 0.00 87 1015.3
20260508020342 61 139 0.0 0.0 0.00 0.00 0.00 87 1015.3
20260508015839 61 135 0.0 0.0 0.00 0.00 0.00 87 1014.9
20260508015337 61 135 0.0 0.0 0.00 0.00 0.00 86 1015.0
20260508014833 62 135 0.0 0.0 0.00 0.00 0.00 86 1015.2
20260508014332 61 128 0.0 0.0 0.00 0.00 0.00 86 1015.2
20260508013831 61 142 0.0 0.0 0.00 0.00 0.00 86 1015.3
20260508013328 62 142 0.0 0.0 0.00 0.00 0.00 86 1015.4
20260508012826 62 142 0.0 0.0 0.00 0.00 0.00 86 1015.3
20260508012323 62 142 0.0 0.0 0.00 0.00 0.00 85 1015.0
20260508011820 62 142 0.0 0.0 0.00 0.00 0.00 85 1015.1
20260508011318 62 142 0.0 0.0 0.00 0.00 0.00 84 1015.4
20260508010815 63 142 0.0 0.0 0.00 0.00 0.00 85 1015.3
20260508010313 63 142 0.0 0.0 0.00 0.00 0.00 84 1015.2
20260508005809 63 142 0.0 0.0 0.00 0.00 0.00 83 1015.5
20260508005306 64 142 0.0 0.0 0.00 0.00 0.00 82 1015.5
20260508004802 64 142 0.0 0.0 0.00 0.00 0.00 82 1015.5
20260508004258 64 143 0.0 0.0 0.00 0.00 0.00 80 1015.6
20260508003754 64 143 1.0 2.0 0.00 0.00 0.00 80 1015.7
20260508003252 64 142 2.0 3.0 0.00 0.00 0.00 79 1015.6
20260508002748 65 138 0.0 0.0 0.00 0.00 0.00 79 1015.9
20260508002246 65 137 0.0 0.0 0.00 0.00 0.00 76 1016.2
20260508001742 65 153 0.0 0.0 0.00 0.00 0.00 77 1016.4
20260508001237 65 137 0.0 0.0 0.00 0.00 0.00 77 1016.0
20260508000734 65 127 0.0 0.0 0.00 0.00 0.00 76 1016.0
20260508000231 65 138 0.0 0.0 0.00 0.00 0.00 77 1016.1
20260507235727 65 138 2.0 2.0 0.00 0.00 0.00 76 1016.2
20260507235225 65 136 0.0 0.0 0.00 0.00 0.00 76 1016.0
20260507234722 65 138 0.0 0.0 0.00 0.00 0.00 75 1015.9
20260507234219 65 122 0.0 2.0 0.00 0.00 0.00 74 1016.1
20260507233715 65 108 2.0 3.0 0.00 0.00 0.00 74 1016.3
20260507233213 65 142 0.0 0.0 0.00 0.00 0.00 74 1016.2
20260507232710 65 143 1.0 2.0 0.00 0.00 0.00 74 1016.0
20260507232207 65 133 0.0 0.0 0.00 0.00 0.00 75 1016.1
20260507231704 65 133 0.0 2.0 0.00 0.00 0.00 74 1016.0
20260507231200 65 125 2.0 3.0 0.00 0.00 0.00 73 1016.1
20260507230657 65 121 1.0 2.0 0.00 0.00 0.00 75 1015.9
20260507230155 65 134 1.0 2.0 0.00 0.00 0.00 72 1016.3
20260507225654 66 122 0.0 0.0 0.00 0.00 0.00 73 1016.4
20260507225151 66 143 1.0 2.0 0.00 0.00 0.00 74 1016.2
20260507224646 66 156 0.0 0.0 0.00 0.00 0.00 74 1016.4
20260507224143 65 180 2.0 3.0 0.00 0.00 0.00 74 1016.5
20260507223639 66 33 5.0 5.0 0.00 0.00 0.00 72 1016.2
20260507223136 65 153 1.0 2.0 0.00 0.00 0.00 74 1015.9
20260507222633 65 134 2.0 2.0 0.00 0.00 0.00 73 1016.2
20260507222130 66 115 1.0 2.0 0.00 0.00 0.00 74 1016.3
20260507221626 66 145 1.0 2.0 0.00 0.00 0.00 73 1016.9
20260507221123 66 138 1.0 2.0 0.00 0.00 0.00 72 1016.9
20260507220620 66 83 3.0 3.0 0.00 0.00 0.00 71 1017.1
20260507220117 66 339 5.0 7.0 0.00 0.00 0.00 72 1017.0
20260507215613 66 52 2.0 3.0 0.00 0.00 0.00 72 1016.9
20260507215111 66 130 3.0 5.0 0.00 0.00 0.00 72 1016.7
20260507214608 66 74 3.0 5.0 0.00 0.00 0.00 72 1016.9
20260507214104 66 84 4.0 5.0 0.00 0.00 0.00 71 1016.7
20260507213601 65 144 3.0 3.0 0.00 0.00 0.00 72 1016.0
20260507213058 65 119 1.0 3.0 0.00 0.00 0.00 73 1016.0
20260507212554 65 138 0.0 2.0 0.00 0.00 0.00 73 1016.5
20260507212051 65 102 4.0 5.0 0.00 0.00 0.00 72 1016.6
20260507211547 66 336 5.0 7.0 0.00 0.00 0.00 73 1016.9
20260507211043 66 337 4.0 5.0 0.00 0.00 0.00 72 1017.5
20260507210541 66 152 7.0 10.0 0.00 0.00 0.00 71 1017.6
20260507210038 66 160 2.0 3.0 0.00 0.00 0.00 74 1017.2
20260507205534 65 99 5.0 7.0 0.00 0.00 0.00 72 1017.0
20260507205031 65 80 3.0 3.0 0.00 0.00 0.00 73 1017.6
20260507204527 65 123 3.0 5.0 0.00 0.00 0.00 72 1017.8
20260507204025 64 137 2.0 3.0 0.00 0.00 0.00 74 1017.3
20260507203523 64 145 3.0 5.0 0.00 0.00 0.00 75 1017.4
20260507203020 64 45 6.0 9.0 0.00 0.00 0.00 73 1017.6
20260507202515 64 324 6.0 7.0 0.00 0.00 0.00 74 1017.5
20260507202012 64 4 2.0 3.0 0.00 0.00 0.00 74 1017.2
20260507201508 64 29 6.0 7.0 0.00 0.00 0.00 73 1017.3
20260507201004 64 121 3.0 3.0 0.00 0.00 0.00 73 1017.5
20260507200459 64 84 4.0 5.0 0.00 0.00 0.00 72 1017.7
20260507195955 64 82 3.0 5.0 0.00 0.00 0.00 73 1017.3
20260507195453 65 123 6.0 9.0 0.00 0.00 0.00 72 1017.5
20260507194950 64 124 2.0 3.0 0.00 0.00 0.00 73 1017.6
20260507194447 64 137 1.0 2.0 0.00 0.00 0.00 74 1017.9
20260507193942 64 135 2.0 2.0 0.00 0.00 0.00 74 1017.8
20260507193440 64 56 1.0 2.0 0.00 0.00 0.00 74 1017.5
20260507192937 64 59 5.0 7.0 0.00 0.00 0.00 75 1017.5
20260507192432 64 64 2.0 3.0 0.00 0.00 0.00 75 1017.6
20260507191930 64 101 3.0 5.0 0.00 0.00 0.00 75 1018.0
20260507191426 64 280 4.0 7.0 0.00 0.00 0.00 73 1018.9
20260507190922 64 30 6.0 7.0 0.00 0.00 0.00 74 1018.2
20260507190420 64 117 0.0 0.0 0.00 0.00 0.00 77 1018.2
20260507185919 64 128 0.0 0.0 0.00 0.00 0.00 77 1018.2
20260507185416 63 123 0.0 0.0 0.00 0.00 0.00 77 1018.1
20260507184913 63 120 2.0 2.0 0.00 0.00 0.00 76 1018.0
20260507184410 63 133 0.0 2.0 0.00 0.00 0.00 73 1018.3
20260507183908 63 142 1.0 2.0 0.00 0.00 0.00 75 1018.7
20260507183404 63 140 0.0 2.0 0.00 0.00 0.00 76 1019.0
20260507182902 63 73 0.0 0.0 0.00 0.00 0.00 76 1018.7
20260507182357 63 120 2.0 3.0 0.00 0.00 0.00 75 1019.1
20260507181854 63 99 2.0 3.0 0.00 0.00 0.00 73 1019.0
20260507181350 63 154 6.0 9.0 0.00 0.00 0.00 73 1018.9
20260507180847 63 119 3.0 7.0 0.00 0.00 0.00 76 1017.5
20260507180344 63 126 2.0 3.0 0.00 0.00 0.00 76 1018.0
20260507175839 62 69 2.0 3.0 0.00 0.00 0.00 75 1018.5
20260507175337 62 124 2.0 3.0 0.00 0.00 0.00 76 1019.3
20260507174834 62 103 4.0 5.0 0.00 0.00 0.00 75 1018.7
20260507174331 62 101 3.0 3.0 0.00 0.00 0.00 75 1018.0
20260507173829 62 75 3.0 5.0 0.00 0.00 0.00 76 1019.0
20260507173326 62 349 5.0 7.0 0.00 0.00 0.00 76 1019.5
20260507172822 61 113 2.0 3.0 0.00 0.00 0.00 77 1019.0
20260507172319 61 126 2.0 3.0 0.00 0.00 0.00 77 1018.6
20260507171814 61 138 1.0 2.0 0.00 0.00 0.00 77 1018.2
20260507171312 61 53 4.0 5.0 0.00 0.00 0.00 76 1018.7
20260507170809 61 127 2.0 3.0 0.00 0.00 0.00 76 1019.4
20260507170305 61 195 2.0 3.0 0.00 0.00 0.00 76 1019.8
20260507165801 61 283 7.0 10.0 0.00 0.00 0.00 77 1020.1
20260507165257 61 60 4.0 5.0 0.00 0.00 0.00 76 1019.9
20260507164753 61 78 2.0 3.0 0.00 0.00 0.00 76 1019.5
20260507164251 61 204 4.0 5.0 0.00 0.00 0.00 76 1019.7
20260507163748 61 147 2.0 2.0 0.00 0.00 0.00 77 1019.1
20260507163245 61 334 7.0 9.0 0.00 0.00 0.00 76 1020.7
20260507162741 61 66 2.0 3.0 0.00 0.00 0.00 77 1019.6
20260507162237 61 105 2.0 3.0 0.00 0.00 0.00 76 1019.8
20260507161734 61 114 0.0 2.0 0.00 0.00 0.00 78 1020.1
20260507161231 60 143 1.0 2.0 0.00 0.00 0.00 77 1019.5
20260507160726 61 122 2.0 2.0 0.00 0.00 0.00 77 1019.6
20260507160223 60 129 0.0 2.0 0.00 0.00 0.00 78 1019.7
20260507155719 60 105 1.0 2.0 0.00 0.00 0.00 78 1019.2
20260507155215 60 135 0.0 2.0 0.00 0.00 0.00 78 1019.6
20260507154712 60 259 7.0 9.0 0.00 0.00 0.00 77 1019.6
20260507154210 60 74 5.0 7.0 0.00 0.00 0.00 78 1020.1
20260507153707 60 108 3.0 3.0 0.00 0.00 0.00 79 1019.8
20260507153203 60 87 5.0 7.0 0.00 0.00 0.00 78 1019.2
20260507152659 60 66 6.0 9.0 0.00 0.00 0.00 78 1019.6
20260507152155 59 58 3.0 3.0 0.00 0.00 0.00 79 1019.6
20260507151651 59 38 6.0 7.0 0.00 0.00 0.00 81 1019.3
20260507151148 59 61 3.0 5.0 0.00 0.00 0.00 81 1019.5
20260507150645 59 62 6.0 9.0 0.00 0.00 0.00 82 1018.9
20260507150142 58 50 4.0 7.0 0.00 0.00 0.00 83 1018.6
20260507145637 58 87 3.0 5.0 0.00 0.00 0.00 83 1018.7
20260507145135 58 60 6.0 10.0 0.00 0.00 0.00 82 1019.1
20260507144631 58 66 5.0 7.0 0.00 0.00 0.00 83 1019.6
20260507144130 58 84 4.0 7.0 0.00 0.00 0.00 83 1020.0
20260507143626 58 128 3.0 5.0 0.00 0.00 0.00 83 1019.5
20260507143123 58 95 4.0 7.0 0.00 0.00 0.00 83 1019.4
20260507142618 58 355 6.0 9.0 0.00 0.00 0.00 83 1019.4
20260507142116 58 183 4.0 5.0 0.00 0.00 0.00 83 1019.2
20260507141612 58 173 6.0 7.0 0.00 0.00 0.00 83 1019.1
20260507141109 58 111 6.0 10.0 0.00 0.00 0.00 83 1019.2
20260507140605 58 120 2.0 3.0 0.00 0.00 0.00 84 1018.4
20260507135559 58 42 9.0 14.0 0.00 0.00 0.00 82 1019.1
20260507135057 59 56 5.0 7.0 0.00 0.00 0.00 82 1019.7
20260507134553 59 41 9.0 14.0 0.00 0.00 0.00 82 1019.8
20260507134049 59 12 3.0 5.0 0.00 0.00 0.00 84 1019.8
20260507133545 58 78 7.0 10.0 0.00 0.00 0.00 84 1019.7
20260507133043 58 251 4.0 5.0 0.00 0.00 0.00 85 1019.6
20260507132540 58 78 2.0 3.0 0.00 0.00 0.00 84 1019.5
20260507132036 58 67 4.0 5.0 0.00 0.00 0.00 84 1019.3
20260507131533 58 74 5.0 7.0 0.00 0.00 0.00 83 1019.2
20260507131030 58 81 5.0 9.0 0.00 0.00 0.00 83 1019.3
20260507130527 58 59 5.0 5.0 0.00 0.00 0.00 83 1019.6
20260507130026 58 338 9.0 14.0 0.00 0.00 0.00 84 1019.3
20260507125524 58 48 5.0 7.0 0.00 0.00 0.00 85 1019.2
20260507125021 58 301 7.0 9.0 0.00 0.00 0.00 86 1019.1
20260507124517 58 42 10.0 12.0 0.00 0.00 0.00 86 1019.0
20260507124015 59 355 8.0 10.0 0.00 0.00 0.00 87 1018.5
20260507123513 59 316 5.0 5.0 0.00 0.00 0.00 87 1018.5
20260507123010 59 68 4.0 5.0 0.00 0.00 0.00 87 1018.5
20260507122504 59 134 3.0 5.0 0.00 0.00 0.00 87 1018.5
20260507122001 59 89 5.0 7.0 0.00 0.00 0.00 87 1018.4
20260507121456 59 63 4.0 7.0 0.00 0.00 0.00 87 1018.4
20260507120953 59 357 3.0 5.0 0.00 0.00 0.00 87 1018.2
20260507120449 59 10 6.0 7.0 0.00 0.00 0.00 87 1018.4
20260507115946 59 130 5.0 7.0 0.00 0.00 0.00 87 1018.3
20260507115442 59 137 6.0 10.0 0.00 0.00 0.00 87 1018.2
20260507114938 59 11 5.0 7.0 0.00 0.00 0.00 88 1018.4
20260507114434 59 64 6.0 9.0 0.00 0.00 0.00 88 1018.3
20260507113932 59 68 5.0 7.0 0.00 0.00 0.00 88 1018.1
20260507113428 59 79 6.0 12.0 0.00 0.00 0.00 89 1018.0
20260507112926 59 344 6.0 9.0 0.00 0.00 0.00 89 1017.9
20260507112423 59 13 6.0 7.0 0.00 0.00 0.00 90 1017.8
20260507111920 59 342 7.0 9.0 0.00 0.00 0.00 89 1018.1
20260507111418 59 325 8.0 10.0 0.00 0.00 0.00 88 1018.0
20260507110914 59 345 8.0 9.0 0.00 0.00 0.00 87 1017.8
20260507110410 59 324 5.0 10.0 0.00 0.00 0.00 86 1017.5
20260507105907 59 92 7.0 10.0 0.00 0.00 0.00 86 1017.5
20260507105403 59 352 4.0 7.0 0.00 0.00 0.00 86 1017.4
20260507104900 59 10 8.0 10.0 0.00 0.00 0.00 87 1017.6
20260507104357 59 20 11.0 12.0 0.00 0.00 0.00 88 1017.8
20260507103853 59 16 8.0 12.0 0.00 0.00 0.00 89 1017.6
20260507103350 59 3 7.0 9.0 0.00 0.00 0.00 88 1017.3
20260507102846 59 14 11.0 14.0 0.00 0.00 0.00 90 1017.8
20260507102342 59 334 9.0 14.0 0.00 0.00 0.00 91 1018.0
20260507101839 59 325 5.0 7.0 0.00 0.00 0.00 91 1017.9
20260507101333 59 332 6.0 10.0 0.00 0.00 0.00 91 1017.9
20260507100831 59 355 7.0 10.0 0.00 0.00 0.00 90 1018.1
20260507100328 59 23 7.0 9.0 0.00 0.00 0.00 90 1017.5
20260507095826 59 358 5.0 7.0 0.00 0.00 0.00 90 1017.1
20260507095322 59 40 2.0 3.0 0.00 0.00 0.00 90 1017.1
20260507094820 59 49 3.0 5.0 0.00 0.00 0.00 91 1017.7
20260507094316 59 18 6.0 9.0 0.00 0.00 0.00 91 1017.9
20260507093813 59 106 2.0 3.0 0.00 0.00 0.00 91 1017.2
20260507093312 59 123 1.0 2.0 0.00 0.00 0.00 91 1017.2
20260507092809 59 350 7.0 10.0 0.00 0.00 0.00 91 1016.5
20260507092307 59 56 2.0 3.0 0.00 0.00 0.00 91 1017.1
20260507091802 59 43 3.0 3.0 0.00 0.00 0.00 92 1017.1
20260507091259 59 6 4.0 5.0 0.00 0.00 0.00 92 1016.9
20260507090759 59 137 3.0 5.0 0.00 0.00 0.00 92 1017.1
20260507090256 59 139 1.0 2.0 0.00 0.00 0.00 92 1016.7
20260507085753 59 69 2.0 3.0 0.00 0.00 0.00 92 1016.6
20260507085250 59 134 2.0 3.0 0.00 0.00 0.00 92 1016.5